ONEWEB-0142 (47288 NORAD) Tracking and Keplerian Element Data

This shows tracking and keplerian element data for the satellite.

Feedback or suggestion? Click here.




ElementValue
Catalog47288
NameONEWEB-0142
Epoch Orbit514
Epoch Day21.16668981
Epoch Year2021
RAAN27.8793
Inclination87.4416
Eccentricity0.0009327
Argument of Perigee136.7418
Mean Anonmoly104.1167
Mean Motion15.02253986
Decay Rate-0.01475266
L11 47288U 20100AG 21021.16668981 -.01475266 00000-0 -12259+0 0 9994
L22 47288 87.4416 27.8793 0009327 136.7418 104.1167 15.02253986 5149

Live tracking and technical data element details for ONEWEB-0142 (NORAD 47288). ONEWEB-0142 can be tracked NOW for your location showing map with azimuth and elevation plus other details from your city location.

Track the satellite on the map from your city or location and see movement details for azimuth, elevation, latitude, longitude, range, height, and movement on the map or in text.







IsCatalogInMostPopularTable: catalog: 47288, numindb: 15
Update: records affected: 1



GetName: 47288 ONEWEB-0142

Hit Count: updated at: Sat, 23 Jan 2021 17:11:50 GMT